KN4PLR Weather Reports


time (UTC)temp
C
wind
direction
speed
KPH
gust
KPH
rain 1hr
cm
rain 24hr
cm
rain mn
cm
humidity
%
barometer
mb
20260906123014 22 203 0.0 0.0 0.00 4.22 2.41 63 985.0
20260906122514 22 225 0.0 0.0 0.00 4.22 2.41 63 985.0
20260906122014 22 203 0.0 0.0 0.00 4.22 2.41 62 985.0
20260906121514 22 203 0.0 0.0 0.00 4.22 2.41 62 985.0
20260906121014 22 203 0.0 0.0 0.00 4.22 2.41 62 985.0
20260906120514 22 203 0.0 0.0 0.00 4.22 2.41 62 985.0
20260906120014 22 338 0.0 0.0 0.00 4.22 2.41 62 985.0
20260906115514 22 180 0.0 0.0 0.00 4.22 2.41 62 985.0
20260906114014 22 180 0.0 0.0 0.00 4.22 2.41 62 984.0
20260906113514 22 180 0.0 0.0 0.00 4.22 2.41 62 984.0
20260906113014 22 203 0.0 0.0 0.00 4.22 2.41 62 984.0
20260906112514 22 203 0.0 0.0 0.00 4.22 2.41 62 984.0
20260906112014 22 203 0.0 0.0 0.00 4.22 2.41 62 984.0
20260906111514 22 203 0.0 0.0 0.00 4.22 2.41 62 984.0
20260906111014 22 203 0.0 0.0 0.00 4.22 2.41 62 984.0
20260906110514 22 203 0.0 0.0 0.00 4.22 2.41 61 984.0
20260906110014 22 225 0.0 0.0 0.00 4.22 2.41 61 984.0
20260906105514 22 203 0.0 0.0 0.00 4.22 2.41 61 984.0
20260906105014 22 180 0.0 0.0 0.00 4.22 2.41 61 984.0
20260906104514 22 180 0.0 0.0 0.00 4.22 2.41 61 984.0
20260906104014 22 203 0.0 0.0 0.00 4.22 2.41 61 984.0
20260906103514 22 203 0.0 0.0 0.00 4.22 2.41 61 984.0
20260906103014 22 203 0.0 0.0 0.00 4.22 2.41 61 984.0
20260906102514 22 203 0.0 0.0 0.00 4.22 2.41 61 984.0
20260906102014 22 203 0.0 0.0 0.00 4.22 2.41 61 984.0
20260906101514 22 270 0.0 0.0 0.00 4.22 2.41 61 984.0
20260906101014 22 270 0.0 0.0 0.00 4.22 2.41 61 984.0
20260906100514 22 270 0.0 0.0 0.00 4.22 2.41 61 984.0
20260906100014 22 270 0.0 0.0 0.00 4.22 2.41 61 984.0
20260906095514 22 180 0.0 0.0 0.00 4.22 2.41 61 983.0
20260906095014 22 180 0.0 0.0 0.00 4.22 2.41 61 983.0
20260906094514 22 180 0.0 0.0 0.00 4.22 2.41 61 983.0
20260906094014 22 203 0.0 0.0 0.00 4.22 2.41 61 984.0
20260906093014 22 225 0.0 0.0 0.00 4.22 2.41 61 984.0
20260906092514 22 203 0.0 0.0 0.00 4.22 2.41 61 983.0
20260906092014 22 203 0.0 0.0 0.00 4.22 2.41 61 983.0
20260906091014 22 203 0.0 0.0 0.00 4.22 2.41 61 983.0
20260906085514 22 315 0.0 0.0 0.00 4.22 2.41 61 983.0
20260906084514 22 315 0.0 0.0 0.00 4.22 2.41 61 983.0
20260906083514 22 293 0.0 0.0 0.00 4.22 2.41 61 984.0
20260906083014 22 293 0.0 0.0 0.00 4.22 2.41 61 984.0
20260906082514 22 293 0.0 0.0 0.00 4.22 2.41 61 984.0
20260906082014 22 338 0.0 0.0 0.00 4.22 2.41 61 984.0
20260906081514 22 338 0.0 0.0 0.00 4.22 2.41 61 984.0
20260906081014 22 338 0.0 0.0 0.00 4.22 2.41 61 984.0
20260906080014 22 315 0.0 0.0 0.00 4.22 2.41 60 984.0
20260906075514 22 315 0.0 0.0 0.00 4.22 2.41 60 984.0
20260906075014 22 338 0.0 0.0 0.00 4.22 2.41 60 984.0
20260906074514 22 338 0.0 0.0 0.00 4.22 2.41 60 984.0
20260906074014 22 338 0.0 0.0 0.00 4.22 2.41 61 983.0
20260906073014 22 338 0.0 0.0 0.30 4.22 2.41 60 983.0
20260906072514 22 338 0.0 0.0 0.41 4.22 2.41 60 983.0
20260906072014 22 338 0.0 0.0 0.84 4.22 2.41 60 983.0
20260906071514 22 338 0.0 0.0 1.14 4.22 2.41 60 983.0
20260906070514 22 338 0.0 0.0 1.57 4.22 2.41 60 984.0
20260906070014 22 338 0.0 0.0 2.21 4.22 2.41 60 984.0
20260906065514 22 338 0.0 0.0 2.41 4.22 2.41 60 984.0
20260906065014 22 338 0.0 0.0 2.41 4.22 2.41 60 984.0
20260906064514 23 338 0.0 0.0 2.41 4.22 2.41 60 984.0
20260906064014 23 338 0.0 0.0 2.41 4.22 2.41 60 985.0
20260906063514 23 338 0.0 0.0 2.41 4.22 2.41 59 985.0
20260906063014 23 338 0.0 3.2 2.11 3.91 2.11 59 985.0
20260906062514 22 23 0.0 3.2 2.01 3.81 2.01 58 985.0
20260906062014 22 248 0.0 0.0 1.57 3.38 1.57 58 985.0
20260906061514 22 248 0.0 0.0 1.27 3.07 1.27 58 985.0
20260906060014 22 338 0.0 14.5 0.20 2.01 0.20 58 985.0
20260906055514 22 23 9.7 14.5 0.00 1.80 0.00 59 984.0
20260906054514 22 180 0.0 0.0 0.00 1.80 0.00 55 984.0
20260906054014 22 180 0.0 0.0 0.00 1.80 0.00 55 984.0
20260906053014 22 180 0.0 0.0 0.00 1.80 0.00 55 984.0
20260906052514 22 180 0.0 0.0 0.00 1.80 0.00 54 984.0
20260906052014 22 203 0.0 0.0 0.00 1.80 0.00 54 984.0
20260906050514 22 203 0.0 0.0 0.00 1.80 0.00 54 984.0
20260906050014 22 203 0.0 0.0 0.00 1.80 0.00 54 984.0
20260906044514 22 203 0.0 0.0 0.00 1.80 0.00 53 984.0
20260906044014 22 203 0.0 0.0 0.00 1.80 0.00 53 984.0
20260906043514 22 203 0.0 0.0 0.00 1.80 0.00 53 984.0
20260906043014 22 203 0.0 0.0 0.00 1.80 0.00 53 984.0
20260906042514 22 203 0.0 0.0 0.00 1.80 0.00 53 984.0
20260906042014 22 203 0.0 0.0 0.00 1.80 0.00 52 984.0
20260906041514 22 203 0.0 0.0 0.00 1.80 0.00 52 984.0
20260906041014 22 203 0.0 0.0 0.00 1.80 0.00 52 984.0
20260906040514 23 180 0.0 0.0 0.00 1.80 0.00 52 984.0
20260906040014 23 158 0.0 0.0 0.00 1.80 0.00 52 984.0
20260906035514 23 158 0.0 0.0 0.00 1.80 1.80 52 984.0
20260906035014 23 158 0.0 0.0 0.00 1.80 1.80 52 984.0
20260906034514 23 158 0.0 0.0 0.00 1.80 1.80 52 984.0
20260906034014 23 158 0.0 0.0 0.00 1.80 1.80 52 984.0
20260906033514 23 158 0.0 0.0 0.00 1.80 1.80 52 984.0
20260906032014 23 158 0.0 0.0 0.00 1.80 1.80 51 984.0
20260906031514 23 158 0.0 0.0 0.00 1.80 1.80 51 984.0
20260906031014 23 158 0.0 0.0 0.00 1.80 1.80 51 984.0
20260906030514 23 158 0.0 0.0 0.00 1.80 1.80 51 984.0
20260906030014 23 158 0.0 0.0 0.00 1.80 1.80 51 984.0
20260906025514 23 158 0.0 0.0 0.00 1.80 1.80 51 984.0
20260906025014 23 158 0.0 0.0 0.00 1.80 1.80 51 984.0
20260906024514 23 158 0.0 0.0 0.00 1.80 1.80 50 984.0
20260906024014 23 158 0.0 0.0 0.00 1.80 1.80 50 984.0
20260906023514 23 158 0.0 0.0 0.00 1.80 1.80 50 984.0
20260906022514 23 158 0.0 0.0 0.00 1.80 1.80 50 984.0
20260906022014 23 158 0.0 0.0 0.00 1.80 1.80 50 984.0
20260906021014 23 158 0.0 0.0 0.00 1.80 1.80 49 984.0
20260906020514 23 158 0.0 0.0 0.00 1.80 1.80 49 984.0
20260906020014 23 158 0.0 0.0 0.00 1.80 1.80 49 984.0
20260906015514 23 158 0.0 0.0 0.00 1.80 1.80 48 984.0
20260906015014 23 158 0.0 0.0 0.00 1.80 1.80 48 984.0
20260906014514 23 158 0.0 0.0 0.00 1.80 1.80 48 984.0
20260906014014 23 158 0.0 0.0 0.00 1.80 1.80 47 984.0
20260906013514 24 158 0.0 0.0 0.00 1.80 1.80 47 984.0
20260906013014 24 158 0.0 0.0 0.00 1.80 1.80 47 983.0
20260906012014 24 158 0.0 0.0 0.00 1.80 1.80 47 983.0
20260906011514 24 158 0.0 0.0 0.00 1.80 1.80 47 983.0
20260906010514 24 158 0.0 0.0 0.00 1.80 1.80 47 984.0
20260906005514 25 158 0.0 0.0 0.00 1.80 1.80 46 983.0
20260906005014 25 158 0.0 0.0 0.00 1.80 1.80 46 983.0
20260906004514 25 158 0.0 0.0 0.00 1.80 1.80 46 983.0
20260906003514 25 158 0.0 0.0 0.00 1.80 1.80 45 983.0
20260906003014 25 158 0.0 0.0 0.00 1.80 1.80 45 983.0
20260906002014 25 158 0.0 0.0 0.00 1.80 1.80 45 983.0
20260906001514 25 158 0.0 0.0 0.00 1.80 1.80 45 983.0
20260906001014 25 158 0.0 0.0 0.00 1.80 1.80 45 983.0
20260906000014 25 158 0.0 0.0 0.00 1.80 1.80 44 983.0
20260905235514 25 158 0.0 0.0 0.00 1.80 1.80 44 983.0
20260905235014 25 203 0.0 0.0 0.00 1.80 1.80 44 983.0
20260905234514 25 203 0.0 0.0 0.00 1.80 1.80 44 983.0
20260905234014 25 203 0.0 0.0 0.00 1.80 1.80 44 983.0
20260905232514 26 203 0.0 0.0 0.00 1.80 1.80 43 983.0
20260905232014 26 203 0.0 0.0 0.00 1.80 1.80 43 983.0
20260905231514 26 203 0.0 0.0 0.00 1.80 1.80 42 983.0
20260905231014 26 203 0.0 0.0 0.00 1.80 1.80 42 983.0
20260905230514 26 203 0.0 0.0 0.00 1.80 1.80 42 983.0
20260905230014 26 203 0.0 0.0 0.00 1.80 1.80 42 983.0
20260905225514 26 203 0.0 0.0 0.00 1.80 1.80 42 983.0
20260905224514 26 203 0.0 0.0 0.00 1.80 1.80 42 983.0
20260905224014 26 203 0.0 0.0 0.00 1.80 1.80 41 983.0
20260905223514 26 180 0.0 0.0 0.00 1.80 1.80 41 983.0
20260905223014 26 180 0.0 0.0 0.00 1.80 1.80 40 983.0
20260905222514 26 225 0.0 0.0 0.00 1.80 1.80 40 983.0
20260905222014 27 203 0.0 0.0 0.00 1.80 1.80 39 983.0
20260905221514 27 203 0.0 0.0 0.00 1.80 1.80 39 983.0
20260905221014 27 203 0.0 0.0 0.00 1.80 1.80 39 983.0
20260905220014 27 203 0.0 0.0 0.00 1.80 1.80 37 983.0
20260905215514 27 203 0.0 0.0 0.00 1.80 1.80 37 983.0
20260905214514 27 203 0.0 0.0 0.00 1.80 1.80 36 983.0
20260905214014 27 203 0.0 1.6 0.00 1.80 1.80 35 983.0
20260905213514 27 225 0.0 1.6 0.00 1.80 1.80 35 983.0
20260905213014 27 203 0.0 0.0 0.00 1.80 1.80 35 983.0
20260905212514 27 338 0.0 0.0 0.00 1.80 1.80 35 982.0
20260905211514 28 248 0.0 0.0 0.00 1.80 1.80 34 982.0
20260905211014 28 248 0.0 0.0 0.00 1.80 1.80 33 982.0
20260905210514 28 248 0.0 0.0 0.00 1.80 1.80 33 982.0
20260905210014 28 248 0.0 1.6 0.00 1.80 1.80 33 982.0
20260905205514 28 338 0.0 1.6 0.00 1.80 1.80 33 982.0
20260905204014 28 180 0.0 3.2 0.00 1.80 1.80 32 982.0
20260905203514 28 180 0.0 1.6 0.00 1.80 1.80 32 982.0
20260905203014 29 23 0.0 1.6 0.00 1.80 1.80 32 982.0
20260905202014 29 225 0.0 4.8 0.00 1.80 1.80 32 982.0
20260905201514 29 23 0.0 4.8 0.00 1.80 1.80 32 982.0
20260905201014 29 270 0.0 0.0 0.00 1.80 1.80 32 983.0
20260905200514 29 293 0.0 0.0 0.00 1.80 1.80 33 983.0
20260905200014 28 315 0.0 0.0 0.00 1.80 1.80 33 983.0
20260905195514 28 315 0.0 1.6 0.00 1.80 1.80 33 983.0
20260905195014 28 23 0.0 1.6 0.00 1.80 1.80 34 983.0
20260905194514 28 0 0.0 3.2 0.00 1.80 1.80 34 983.0
20260905193514 28 338 0.0 1.6 0.00 1.80 1.80 36 983.0
20260905193014 28 23 1.6 3.2 0.00 1.80 1.80 38 984.0
20260905192514 28 23 0.0 3.2 0.00 1.80 1.80 38 984.0
20260905192015 28 225 3.2 3.2 0.00 1.80 1.80 38 984.0
20260905191514 28 248 0.0 0.0 0.00 1.80 1.80 39 984.0
20260905191014 28 248 0.0 4.8 0.00 1.80 1.80 39 984.0
20260905190514 28 270 0.0 4.8 0.00 1.80 1.80 39 984.0
20260905190014 28 180 0.0 4.8 0.00 1.80 1.80 38 984.0
20260905185514 28 338 0.0 4.8 0.00 1.80 1.80 38 984.0
20260905185014 28 338 0.0 0.0 0.00 1.80 1.80 41 984.0
20260905184514 28 338 0.0 0.0 0.00 1.80 1.80 38 984.0
20260905184014 28 0 0.0 0.0 0.00 1.80 1.80 41 985.0
20260905183514 28 315 0.0 0.0 0.00 1.80 1.80 41 985.0
20260905183014 28 338 0.0 0.0 0.00 1.80 1.80 40 985.0
20260905182514 28 248 0.0 4.8 0.00 1.80 1.80 39 985.0
20260905182014 28 203 0.0 4.8 0.00 1.80 1.80 40 985.0
20260905181514 27 248 4.8 4.8 0.00 1.80 1.80 43 985.0
20260905181014 27 225 0.0 0.0 0.00 1.80 1.80 42 985.0
20260905180514 27 203 0.0 0.0 0.00 1.80 1.80 43 985.0
20260905180014 27 158 0.0 0.0 0.00 1.80 1.80 44 985.0
20260905175514 27 180 0.0 1.6 0.00 1.80 1.80 44 985.0
20260905175014 26 248 0.0 1.6 0.00 1.80 1.80 46 985.0
20260905174514 26 225 0.0 0.0 0.00 1.80 1.80 46 985.0
20260905174014 26 203 0.0 0.0 0.00 1.80 1.80 47 985.0
20260905173514 26 225 0.0 0.0 0.00 1.80 1.80 48 985.0
20260905173015 25 203 0.0 0.0 0.00 1.80 1.80 50 985.0
20260905172514 25 158 0.0 0.0 0.00 1.80 1.80 51 985.0
20260905172014 25 203 0.0 0.0 0.00 1.80 1.80 51 985.0
20260905171514 25 203 0.0 8.0 0.00 1.80 1.80 53 985.0
20260905170514 25 180 0.0 1.6 0.00 1.80 1.80 59 985.0
20260905170014 24 203 0.0 1.6 0.00 1.80 1.80 61 985.0
20260905165514 24 225 1.6 1.6 0.00 1.80 1.80 61 986.0
20260905165014 24 225 0.0 4.8 0.00 1.80 1.80 62 986.0
20260905164014 23 203 0.0 0.0 0.00 1.80 1.80 63 986.0
20260905163514 23 203 0.0 0.0 0.00 1.80 1.80 63 986.0
20260905162514 23 203 0.0 0.0 0.00 1.80 1.80 63 987.0
20260905162014 23 180 0.0 0.0 0.00 1.80 1.80 63 987.0
20260905161515 23 180 0.0 0.0 0.00 1.80 1.80 62 987.0
20260905161014 22 180 0.0 0.0 0.00 1.80 1.80 62 987.0
20260905160514 22 23 0.0 0.0 0.00 1.80 1.80 62 987.0
20260905160014 22 203 0.0 0.0 0.00 1.80 1.80 62 987.0
20260905155514 22 203 0.0 0.0 0.10 1.80 1.80 61 987.0
20260905155014 22 203 0.0 4.8 0.10 1.80 1.80 61 987.0
20260905154015 22 180 0.0 0.0 0.10 1.80 1.80 61 987.0
20260905153514 22 203 0.0 0.0 0.23 1.80 1.80 61 987.0
20260905153014 22 203 0.0 0.0 0.23 1.80 1.80 61 987.0
20260905152514 22 203 0.0 0.0 0.23 1.80 1.80 60 988.0
20260905152014 22 203 0.0 0.0 0.23 1.80 1.80 60 988.0
20260905151514 22 203 0.0 0.0 0.23 1.80 1.80 60 988.0
20260905151014 22 225 0.0 0.0 0.23 1.80 1.80 60 989.0
20260905150514 22 225 0.0 0.0 0.23 1.80 1.80 60 989.0
20260905150014 22 225 0.0 0.0 0.84 1.80 1.80 59 989.0
20260905145514 22 338 0.0 0.0 1.70 1.70 1.70 59 989.0
20260905145014 22 338 0.0 0.0 1.70 1.70 1.70 59 989.0
20260905144514 22 338 0.0 0.0 1.70 1.70 1.70 59 989.0
20260905144014 22 203 0.0 0.0 1.70 1.70 1.70 59 988.0
20260905143514 22 293 0.0 0.0 1.57 1.57 1.57 59 988.0
20260905143014 22 158 0.0 4.8 1.57 1.57 1.57 58 988.0
20260905142514 23 0 0.0 4.8 1.57 1.57 1.57 58 988.0
20260905142014 23 338 4.8 8.0 1.57 1.57 1.57 59 988.0
20260905141514 23 23 4.8 17.7 1.57 1.57 1.57 60 988.0
20260905141014 23 0 3.2 17.7 1.57 1.57 1.57 59 988.0
20260905140514 23 45 17.7 20.9 1.57 1.57 1.57 60 988.0
20260905140014 23 45 17.7 20.9 0.97 0.97 0.97 58 988.0
20260905135514 25 23 6.4 32.2 0.00 0.00 0.00 48 986.0
20260905134514 24 338 32.2 32.2 0.00 0.00 0.00 48 986.0
20260905133514 23 203 0.0 0.0 0.00 0.00 0.00 59 986.0
20260905133014 23 338 0.0 0.0 0.00 0.00 0.00 58 986.0
20260905132514 23 338 0.0 0.0 0.00 0.00 0.00 58 986.0
20260905132014 22 338 0.0 0.0 0.00 0.00 0.00 58 986.0
20260905130514 22 338 0.0 0.0 0.00 0.00 0.00 56 986.0
20260905130014 22 338 0.0 0.0 0.00 0.00 0.00 56 986.0
20260905125514 22 338 0.0 0.0 0.00 0.00 0.00 56 986.0
20260905125014 22 338 0.0 0.0 0.00 0.00 0.00 55 986.0
20260905124514 21 338 0.0 0.0 0.00 0.00 0.00 55 986.0
20260905124014 21 203 0.0 0.0 0.00 0.00 0.00 55 986.0
20260905123514 21 203 0.0 0.0 0.00 0.00 0.00 54 986.0